Temperature
19 19 19 19 19 19 19 19 19 19 19 19 19 19 19 19 19 19 19 19 19 19 19 19 19 18 18 18 18 18 18 18 17 17 17 17 17 17 17 17 17 17 16
19 19 19 19 19 19 19 19 19 19 19 19 19 19 19 19 19 19 19 19 19 19 19 19 19 19 18 18 18 18 18 18 18 17 17 17 17 17 17 17 17 17 17
19 19 19 19 19 19 19 19 19 19 19 19 19 19 19 19 19 19 19 19 19 19 19 19 19 19 18 18 18 18 18 18 18 17 17 17 17 17 17 17 17 17 17
19 19 19 19 19 19 19 19 19 19 19 19 19 19 19 19 19 19 19 19 19 19 19 19 19 19 18 18 18 18 18 18 17 17 17 17 17 17 17 17 17 17 17
19 19 19 19 19 19 19 19 19 19 19 19 19 19 19 19 19 19 19 19 19 19 19 19 19 19 18 18 18 18 18 18 17 17 17 17 17 17 17 17 17 17 16
19 19 19 19 19 19 19 19 19 19 19 19 19 19 19 20 20 20 19 19 19 19 19 19 19 19 18 18 18 18 18 18 17 17 17 17 17 17 17 17 17 17 17
19 19 19 19 19 19 19 19 19 19 19 19 19 19 19 20 20 20 20 20 19 19 19 19 19 18 18 18 18 18 18 18 17 17 17 17 17 17 17 17 17 17 17
19 19 19 19 19 19 19 19 19 19 19 19 19 19 19 19 20 20 20 20 20 19 19 19 19 18 18 18 18 18 18 18 18 18 17 17 17 17 17 17 17 17 17
19 19 19 19 19 19 19 19 19 19 19 19 19 19 19 19 19 20 20 20 20 19 19 19 19 19 18 18 18 18 18 18 18 18 17 17 17 17 17 17 17 17 17
19 19 19 19 19 19 19 19 19 19 19 19 19 19 19 19 19 19 20 20 20 19 19 19 19 19 18 18 18 18 18 18 18 18 17 17 17 17 17 17 17 17 16
19 19 19 19 19 19 19 19 19 19 19 18 19 19 19 19 19 19 19 19 19 19 19 19 19 18 18 18 18 18 18 18 18 17 17 17 17 17 17 17 16 16 16
19 19 19 19 19 19 18 18 18 18 18 18 19 19 19 19 19 19 19 19 19 19 19 19 19 18 18 18 18 18 18 18 17 17 17 17 17 17 16 16 16 16 16
19 19 19 19 19 19 18 18 18 18 18 18 18 18 18 18 18 19 19 19 19 19 19 19 19 18 18 18 18 18 18 17 17 17 17 17 17 17 16 16 16 16 16
19 19 19 19 18 18 18 18 18 18 18 18 18 18 18 18 18 18 18 18 18 18 18 18 18 18 18 18 18 18 17 17 17 17 17 17 17 16 16 16 16 16 16
19 19 19 18 18 18 18 18 18 18 18 18 18 18 18 18 18 18 18 18 18 18 18 18 18 18 18 17 17 17 17 17 17 17 17 16 16 16 16 16 16 16 16
19 18 18 18 18 18 18 18 18 18 18 18 18 18 18 18 18 18 17 18 18 17 17 18 18 18 17 17 17 17 17 17 17 17 16 16 16 16 16 16 16 16 15
19 18 18 18 18 18 17 17 17 17 17 17 17 17 17 17 17 17 17 17 17 17 17 17 17 17 17 17 17 17 16 17 17 16 16 16 16 16 16 16 15 15 15
18 18 18 18 18 17 17 17 17 17 17 17 17 17 17 17 17 17 17 16 16 16 16 16 16 17 17 16 17 16 16 16 16 16 16 16 16 16 15 15 15 15 15
18 18 18 18 18 18 17 17 17 17 17 16 16 16 16 16 16 16 16 16 16 16 16 16 16 16 16 16 16 16 16 16 16 16 15 15 15 15 15 15 15 15 15
18 18 18 17 17 17 17 17 17 17 16 16 16 16 16 16 16 16 15 15 15 15 15 15 15 15 15 16 16 16 15 15 15 15 15 15 15 15 15 15 15 15 15
18 17 17 17 17 17 17 17 17 16 16 16 16 16 16 16 16 15 15 15 15 15 15 15 15 15 15 15 15 15 15 15 15 15 15 15 15 14 14 15 15 14 14
17 17 17 17 17 17 17 17 17 16 16 16 16 16 15 15 15 15 15 15 15 15 15 14 14 14 14 14 14 14 14 14 14 14 14 14 14 14 15 15 14 14 14
17 17 17 17 17 17 17 16 16 16 16 16 15 15 15 15 15 15 15 15 14 14 14 14 14 14 14 14 14 14 14 14 14 14 14 14 14 14 14 14 14 14 14
17 17 17 17 17 17 17 16 16 16 16 15 15 15 15 15 15 14 14 14 14 14 14 14 14 14 13 14 14 13 13 13 13 14 13 13 13 13 14 14 14 13 13
17 17 17 16 16 16 16 16 16 15 15 15 15 15 14 14 14 14 14 14 14 14 13 13 13 13 13 13 13 13 13 13 13 13 13 13 13 13 13 13 13 13 13
17 16 16 16 16 16 16 16 15 15 15 14 14 14 14 14 14 14 13 13 13 13 13 13 13 13 13 13 13 13 13 13 12 12 13 13 13 13 13 13 13 13 13
Wind_Speed
1 1 1 2 2 3 3 3 2 2 2 4 4 3 3 3 2 4 8 14 15 14 13 11 11 11 10 10 10 10 9 9 9 9 8 8 8 8 9 8 8 8 8
1 0 1 1 1 2 2 2 3 3 3 3 3 3 4 3 3 5 7 11 15 15 14 13 12 12 11 11 10 10 10 10 9 9 9 9 9 9 9 9 8 8 8
1 0 1 2 1 2 3 3 3 2 3 3 3 4 3 3 3 4 6 8 10 14 15 14 14 13 12 12 11 11 10 10 10 10 10 9 9 9 9 9 9 9 9
2 1 1 2 1 2 2 2 2 1 1 1 2 3 3 2 3 4 5 7 8 9 13 15 15 14 13 13 12 12 11 11 10 10 11 11 10 10 10 9 10 10 10
2 2 1 1 2 1 1 2 2 1 1 2 2 3 3 3 3 4 4 5 6 8 9 13 15 15 14 13 12 12 12 12 12 11 11 11 11 11 11 11 10 11 11
2 2 2 2 1 1 1 1 1 1 1 2 3 3 3 3 3 3 4 4 5 6 8 9 10 12 14 13 13 12 12 12 12 12 12 12 12 12 12 12 12 11 11
2 2 2 1 1 0 0 2 1 2 2 2 1 2 4 3 4 3 3 2 3 5 6 8 8 7 9 13 12 12 12 12 12 12 11 11 11 12 12 12 12 12 12
2 2 1 2 1 1 1 1 2 2 2 1 1 1 2 2 3 3 3 3 3 2 4 6 8 8 7 9 10 13 12 12 12 12 12 12 12 11 11 11 11 12 12
2 1 1 1 1 1 1 2 2 2 2 2 1 1 1 1 2 2 1 2 2 2 2 3 6 7 8 7 8 12 12 12 12 12 12 12 12 12 12 11 11 11 11
2 1 1 1 2 1 0 3 1 2 2 2 2 1 2 1 1 1 2 1 1 2 3 2 2 5 7 7 8 10 12 12 11 11 11 11 12 12 12 12 12 11 11
2 1 1 0 1 1 1 2 1 2 2 2 2 2 2 2 3 2 2 2 2 1 2 2 1 2 4 7 6 8 12 12 11 10 11 10 11 12 12 11 11 11 10
2 2 2 1 1 1 1 1 1 1 2 2 3 2 2 1 1 1 2 2 2 2 1 1 2 2 3 5 5 7 10 11 11 10 9 9 8 8 10 11 10 10 10
2 2 2 2 1 1 1 0 1 2 1 2 2 3 2 2 1 1 1 2 2 2 1 0 0 1 1 5 5 6 9 10 10 10 9 8 7 7 7 8 9 10 10
2 3 3 2 2 1 1 1 1 1 1 2 2 2 2 3 2 1 2 2 2 2 1 1 1 1 1 3 5 7 6 9 10 10 9 9 8 8 8 8 7 7 8
2 2 3 2 2 2 2 1 1 1 1 1 2 2 2 3 3 2 2 1 2 2 3 1 1 0 1 2 5 4 4 7 9 10 10 10 9 9 8 8 8 8 8
1 2 2 2 2 2 2 1 1 0 0 1 1 2 3 3 3 3 2 2 2 2 2 2 1 0 1 0 4 2 3 6 9 10 10 10 10 10 9 9 9 9 9
2 2 2 2 2 3 2 2 2 1 1 1 2 1 2 2 3 3 3 3 2 2 2 3 2 1 1 1 1 1 3 4 6 10 11 11 11 10 9 8 8 8 8
2 2 2 2 3 3 2 2 2 1 1 0 1 1 2 2 2 3 3 4 3 2 2 4 3 3 2 1 1 2 2 2 2 7 10 11 11 10 9 8 8 8 8
3 3 3 3 3 2 2 2 1 1 1 1 1 1 1 1 2 2 2 3 3 3 2 3 3 3 2 2 2 2 2 1 1 2 5 8 9 9 8 8 8 8 8
4 4 3 3 3 3 2 2 2 2 1 1 1 1 1 1 1 3 3 3 3 3 3 3 3 2 1 2 1 1 2 1 1 1 0 3 6 7 7 8 8 8 7
4 3 3 3 3 3 3 3 2 3 2 2 1 1 0 1 1 2 3 3 3 3 3 2 2 2 2 2 2 2 2 2 2 1 0 0 2 2 3 5 7 8 8
4 3 3 3 3 4 2 3 3 2 2 2 2 1 2 1 1 1 2 3 3 3 3 2 2 3 3 3 3 3 3 2 2 1 1 2 1 2 2 3 5 7 7
4 4 4 4 3 2 2 3 3 2 2 2 2 2 3 1 1 1 2 2 3 4 4 3 3 4 4 3 3 4 3 3 4 2 2 3 2 2 1 2 5 7 8
4 4 4 4 3 3 4 3 2 2 2 2 2 1 1 1 2 2 2 2 3 3 4 3 3 4 4 3 3 4 4 4 3 2 2 2 2 2 2 2 6 8 8
4 4 4 4 4 3 4 4 3 2 2 2 2 1 1 0 1 2 2 2 3 3 3 3 3 3 3 3 3 2 3 3 3 2 1 1 2 2 1 2 4 8 8
4 4 3 4 4 4 4 4 3 3 3 2 2 1 1 1 1 0 2 3 3 4 4 5 4 5 5 5 5 3 3 3 3 2 2 2 2 1 1 0 2 4 4
Wind_Direction
138 161 130 208 213 183 194 213 219 237 261 251 251 230 225 243 190 160 158 172 177 182 186 188 193 197 199 202 205 208 207 209 210 211 211 211 212 212 212 211 213 216 217
112 29 221 243 205 202 198 205 208 219 236 254 270 270 235 224 200 165 163 177 185 187 189 193 197 201 203 203 205 209 212 212 212 211 209 211 213 213 215 217 216 217 218
144 198 247 248 220 206 199 210 217 216 232 239 253 265 248 225 200 196 176 180 187 195 197 199 202 205 207 207 207 208 213 215 215 213 212 215 215 216 219 221 220 221 222
208 244 247 259 234 225 201 199 202 218 252 248 247 259 257 220 208 202 195 190 188 195 199 204 206 207 208 210 211 211 211 214 216 217 217 217 219 220 221 222 224 224 225
220 254 251 266 255 247 237 240 133 171 256 269 259 239 241 225 217 217 195 184 185 179 184 197 205 208 210 211 213 214 214 215 218 219 221 222 222 225 225 226 228 228 228
208 253 227 256 282 317 341 350 22 246 244 258 278 291 279 252 214 208 211 185 178 185 181 178 189 206 210 209 211 213 217 217 219 220 223 224 223 225 226 227 228 230 229
201 232 292 314 302 278 279 281 263 253 240 227 245 286 281 262 223 198 204 193 176 179 176 169 180 186 194 205 211 213 217 220 221 222 225 227 228 227 226 227 225 228 230
208 216 224 274 271 231 227 278 274 263 262 233 212 268 295 302 278 227 191 196 198 187 172 175 178 180 183 180 201 211 217 220 221 224 226 227 228 227 224 225 225 227 229
204 248 189 277 295 242 203 255 264 263 256 264 218 219 243 273 292 275 230 190 185 198 212 179 174 175 182 173 187 203 211 217 221 224 226 227 227 226 225 226 229 229 230
197 203 197 254 297 309 288 274 199 274 270 271 260 226 226 219 248 296 300 272 199 217 223 218 204 170 179 173 178 183 200 209 215 222 227 228 226 225 225 227 228 230 233
194 184 180 233 298 324 332 343 359 323 301 295 294 279 270 240 228 221 269 288 282 241 211 184 191 160 177 165 169 184 192 201 206 215 224 228 226 227 228 226 226 230 235
177 170 172 189 244 299 322 336 310 295 294 311 314 303 300 301 292 260 262 269 274 276 247 181 177 170 166 151 168 177 183 192 199 204 210 215 216 221 223 224 226 228 231
171 178 192 163 189 208 240 258 264 291 287 293 296 299 303 295 283 269 274 278 279 279 276 298 327 140 168 138 147 168 177 185 194 199 200 205 210 216 219 224 228 231 232
179 168 175 168 181 201 234 213 261 265 282 285 294 305 301 301 306 276 257 263 283 302 311 261 264 238 99 133 156 178 181 185 192 197 201 205 208 213 214 219 223 226 229
195 154 165 173 186 208 235 218 239 311 344 317 309 313 309 303 307 311 303 278 261 277 282 259 223 147 88 121 154 176 176 190 198 203 206 209 209 209 209 214 218 224 227
172 161 172 176 188 204 210 230 247 256 355 318 304 350 336 326 336 329 331 328 320 282 279 297 304 302 19 240 169 196 190 191 201 201 204 209 208 206 208 212 217 223 224
194 181 177 179 201 221 215 203 238 237 225 279 313 341 339 333 336 335 342 331 337 336 291 298 311 317 317 307 117 237 218 191 197 197 205 213 209 204 206 212 218 223 225
195 182 180 191 212 215 216 215 237 248 254 282 319 339 331 330 350 339 335 331 337 328 301 298 300 308 306 312 242 240 251 247 213 201 204 210 206 202 204 212 219 222 224
194 191 190 199 219 227 215 215 217 229 262 294 302 311 316 344 336 325 318 322 325 323 304 287 291 293 295 326 302 280 275 288 272 202 200 202 201 203 206 212 218 221 223
193 194 203 210 211 210 206 204 215 211 211 251 264 278 297 327 324 322 315 321 310 309 296 287 282 276 279 294 287 286 292 300 294 322 267 179 189 197 209 214 215 219 222
203 192 204 218 212 204 212 195 213 211 199 217 229 230 169 82 334 314 307 324 323 309 300 300 300 309 318 328 313 300 288 283 276 224 234 260 156 172 197 219 218 217 217
203 199 208 215 225 232 200 164 190 226 209 210 212 227 200 167 142 322 337 328 305 289 302 303 301 310 312 321 325 311 303 298 291 272 273 275 203 211 201 182 203 204 205
202 205 208 211 207 193 142 144 167 208 227 213 219 249 274 235 79 329 301 303 309 287 255 251 277 289 294 301 303 301 302 291 278 271 264 263 244 235 233 202 192 188 190
207 213 214 209 194 185 169 164 177 206 231 225 222 249 275 346 338 354 320 335 313 302 276 255 258 273 291 304 290 279 278 292 283 282 264 268 263 255 245 158 182 182 187
208 215 210 197 183 181 184 174 175 213 229 237 222 248 242 132 45 360 309 305 311 314 303 299 274 261 273 297 298 301 295 292 296 292 293 275 278 277 236 196 177 186 190
212 217 207 183 174 174 180 173 188 215 221 227 202 173 121 149 157 0 297 297 296 302 311 302 288 274 260 260 253 242 261 274 290 305 328 320 296 310 298 224 148 169 189
Height
1547 1547 1547 1547 1547 1547 1548 1548 1549 1549 1550 1550 1551 1552 1552 1552 1553 1552 1552 1553 1553 1553 1553 1554 1554 1555 1555 1556 1557 1557 1558 1558 1559 1560 1560 1561 1562 1563 1564 1565 1566 1567 1568
1546 1546 1546 1546 1547 1547 1547 1547 1548 1548 1549 1549 1550 1550 1551 1551 1551 1552 1552 1552 1552 1552 1552 1553 1553 1553 1554 1554 1555 1555 1556 1557 1557 1558 1558 1559 1560 1561 1562 1563 1564 1565 1566
1546 1546 1546 1546 1546 1546 1546 1547 1547 1548 1548 1548 1548 1548 1549 1550 1551 1550 1550 1550 1550 1550 1551 1551 1552 1552 1552 1553 1553 1553 1554 1554 1555 1556 1556 1557 1558 1559 1560 1561 1562 1563 1564
1546 1546 1545 1546 1546 1545 1545 1546 1546 1547 1547 1547 1547 1547 1548 1549 1549 1549 1549 1549 1549 1549 1549 1550 1550 1550 1551 1551 1551 1552 1552 1552 1553 1554 1554 1555 1555 1556 1557 1558 1559 1560 1561
1545 1545 1545 1545 1545 1545 1545 1545 1545 1545 1545 1546 1546 1546 1546 1547 1547 1548 1548 1548 1548 1548 1548 1548 1547 1548 1549 1549 1549 1550 1550 1550 1551 1551 1551 1552 1553 1554 1555 1556 1556 1557 1558
1544 1544 1544 1544 1544 1544 1544 1544 1544 1544 1544 1544 1545 1545 1545 1545 1545 1546 1546 1547 1546 1545 1545 1545 1546 1546 1546 1547 1547 1547 1548 1548 1548 1549 1549 1549 1550 1551 1552 1553 1554 1555 1555
1543 1543 1543 1543 1543 1543 1543 1543 1542 1543 1543 1543 1543 1543 1543 1543 1543 1543 1544 1545 1545 1544 1544 1543 1543 1543 1544 1544 1544 1545 1545 1545 1546 1546 1547 1547 1547 1548 1549 1550 1551 1552 1552
1542 1542 1542 1542 1542 1541 1541 1541 1541 1541 1541 1542 1542 1542 1542 1543 1541 1542 1542 1543 1543 1543 1542 1542 1541 1541 1542 1542 1542 1543 1543 1543 1543 1544 1544 1544 1545 1545 1546 1547 1548 1548 1549
1540 1541 1541 1541 1541 1540 1540 1540 1540 1540 1540 1540 1540 1541 1542 1541 1541 1541 1541 1541 1541 1541 1540 1540 1540 1540 1540 1539 1539 1540 1540 1540 1541 1541 1541 1541 1542 1542 1543 1543 1544 1545 1546
1539 1539 1539 1539 1539 1539 1539 1539 1538 1538 1538 1538 1539 1540 1541 1540 1541 1540 1540 1540 1539 1538 1538 1539 1538 1538 1538 1537 1537 1537 1538 1538 1538 1538 1538 1538 1539 1539 1540 1540 1541 1542 1543
1537 1537 1537 1537 1538 1538 1537 1537 1537 1537 1537 1537 1538 1538 1539 1539 1539 1539 1538 1538 1538 1537 1537 1537 1535 1536 1536 1535 1535 1535 1535 1535 1535 1535 1535 1535 1535 1536 1537 1537 1538 1538 1539
1535 1535 1536 1536 1536 1536 1536 1536 1536 1536 1536 1536 1536 1536 1537 1537 1537 1537 1537 1536 1536 1536 1535 1535 1535 1534 1534 1533 1533 1533 1533 1533 1533 1532 1532 1532 1532 1533 1533 1534 1535 1535 1536
1532 1533 1533 1533 1534 1534 1534 1534 1534 1535 1534 1534 1535 1535 1535 1535 1536 1535 1535 1535 1534 1534 1533 1533 1532 1532 1532 1531 1531 1532 1531 1531 1530 1530 1530 1530 1530 1530 1530 1531 1532 1532 1533
1531 1531 1531 1531 1532 1533 1533 1533 1533 1533 1533 1533 1533 1533 1533 1534 1534 1534 1534 1533 1532 1532 1531 1531 1530 1530 1530 1529 1529 1529 1529 1528 1528 1528 1528 1528 1528 1528 1528 1528 1529 1529 1529
1530 1530 1530 1530 1530 1531 1531 1532 1531 1531 1531 1531 1531 1531 1531 1531 1532 1532 1532 1532 1532 1530 1529 1529 1528 1528 1527 1526 1526 1526 1526 1526 1526 1525 1525 1525 1525 1525 1525 1525 1525 1525 1526
1528 1528 1528 1528 1529 1529 1530 1530 1530 1530 1530 1529 1529 1529 1529 1529 1529 1529 1529 1529 1529 1529 1527 1527 1526 1526 1526 1525 1524 1523 1523 1523 1523 1523 1522 1522 1522 1522 1522 1522 1522 1522 1522
1525 1526 1526 1526 1527 1527 1528 1528 1528 1528 1528 1528 1528 1527 1527 1527 1527 1526 1527 1527 1526 1526 1525 1524 1524 1524 1523 1522 1522 1521 1521 1521 1520 1520 1520 1519 1519 1519 1519 1519 1519 1519 1519
1523 1524 1524 1524 1525 1525 1526 1526 1526 1526 1526 1526 1526 1525 1525 1525 1524 1524 1524 1524 1523 1523 1523 1522 1521 1521 1521 1520 1519 1519 1519 1519 1518 1517 1517 1516 1516 1516 1516 1516 1516 1515 1515
1520 1521 1521 1522 1522 1523 1523 1524 1524 1524 1524 1524 1523 1523 1523 1523 1522 1522 1521 1521 1520 1520 1520 1519 1518 1519 1518 1518 1517 1517 1516 1515 1515 1514 1514 1513 1513 1513 1513 1513 1513 1512 1512
1517 1518 1519 1519 1520 1520 1521 1521 1521 1521 1521 1521 1521 1521 1521 1521 1520 1519 1519 1518 1518 1517 1517 1516 1516 1516 1515 1515 1515 1514 1513 1513 1512 1512 1511 1511 1510 1510 1510 1510 1509 1509 1508
1514 1515 1516 1516 1517 1517 1518 1518 1518 1519 1519 1519 1519 1519 1518 1518 1518 1517 1517 1516 1515 1514 1514 1514 1514 1513 1512 1512 1512 1511 1510 1509 1509 1509 1509 1508 1508 1507 1507 1506 1506 1505 1505
1511 1512 1512 1513 1514 1515 1515 1515 1516 1516 1516 1516 1516 1516 1516 1515 1515 1514 1514 1513 1512 1511 1511 1511 1511 1510 1510 1509 1508 1508 1507 1506 1506 1507 1506 1505 1504 1504 1503 1503 1503 1502 1502
1508 1509 1510 1510 1511 1511 1512 1513 1513 1513 1513 1513 1513 1513 1514 1513 1512 1512 1511 1510 1509 1508 1508 1508 1508 1507 1507 1506 1505 1505 1505 1504 1503 1503 1503 1502 1502 1501 1500 1500 1499 1499 1499
1506 1506 1507 1508 1508 1508 1509 1509 1510 1510 1510 1510 1510 1510 1510 1510 1510 1509 1508 1507 1506 1506 1505 1505 1505 1504 1504 1503 1503 1502 1502 1501 1500 1500 1500 1499 1499 1498 1497 1497 1496 1496 1496
1503 1503 1504 1504 1504 1505 1505 1506 1506 1506 1507 1507 1507 1507 1507 1507 1507 1506 1506 1504 1503 1503 1503 1502 1502 1501 1501 1500 1500 1499 1498 1497 1496 1496 1497 1497 1496 1495 1494 1494 1494 1493 1493
1500 1500 1501 1501 1501 1501 1502 1502 1503 1503 1503 1504 1504 1504 1504 1504 1503 1503 1503 1502 1501 1500 1500 1499 1498 1498 1497 1497 1496 1496 1495 1495 1494 1494 1494 1494 1493 1493 1492 1492 1491 1491 1490